Station PSLC1 - 9412110 - Port San Luis, CA Image indicating link to RSS feed of recent meteorological observations for station PSLC1


Conditions at PSLC1 as of
(12:18 pm PDT)
1918 GMT on 04/15/2024:
     

Click on the graph icon in the table below to see a time series plot of the last five days of that observation.

5-day plot - Wind Direction Wind Direction (WDIR): SE ( 140 deg true )
5-day plot - Wind Speed Wind Speed (WSPD): 7.0 kts
5-day plot - Wind Gust Wind Gust (GST): 11.1 kts
5-day plot - Atmospheric Pressure Atmospheric Pressure (PRES):30.20 in
5-day plot - Air Temperature Air Temperature (ATMP): 59.9 °F
5-day plot - Water Temperature Water Temperature (WTMP): 54.9 °F
5-day plot - Wind Speed at 10 Meters Wind Speed at 10 meters (WSPD10M): 7.8 kts
5-day plot - Wind Speed at 20 Meters Wind Speed at 20 meters (WSPD20M): 7.8 kts
5-day plot -  Wind Speed, Wind Gust and Atmospheric Pressure Combined plot of Wind Speed, Gust, and Air Pressure
NOS Water Level Observation Network Water Level
Previous observations
TIME
(PDT)
5-day plot - Wind Direction
WDIR
 
5-day plot - Wind Speed
WSPD
kts
5-day plot - Wind Gust
GST
kts
5-day plot - Wave Height
WVHT
ft
5-day plot - Dominant Wave Period
DPD
sec
5-day plot - Average Wave Period
APD
sec
5-day plot - Mean Wave Direction
MWD
 
5-day plot - Atmospheric Pressure
PRES
in
5-day plot - Pressure Tendency
PTDY
in
5-day plot - Air Temperature
ATMP
°F
5-day plot - Water Temperature
WTMP
°F
5-day plot - Dew Point
DEWP
°F
5-day plot - Salinity
SAL
psu
5-day plot - Visibility
VIS
nmi
5-day plot - Tide (above MLLW)
TIDE
ft
2024-04-15 12:12 pmNNW 8.0 13.0----30.20- 61.7 54.9----
2024-04-15 12:06 pmNNW 8.0 11.1----30.20- 61.3 54.9----
2024-04-15 12:00 pmNNW 7.0 8.9----30.20+0.00 61.2 54.9----
2024-04-15 11:54 amWNW 6.0 12.0----30.21- 60.6 54.9----
2024-04-15 11:48 amWSW 6.0 13.0----30.21- 59.4 54.7----
2024-04-15 11:42 am W 6.0 8.9----30.21- 59.2 54.7----
2024-04-15 11:36 am W 6.0 9.9----30.21- 59.2 54.7----
2024-04-15 11:30 am SW 5.1 8.9----30.21- 58.8 54.7----
2024-04-15 11:24 am W 5.1 8.0----30.21- 58.5 54.7----
2024-04-15 11:18 am W 4.1 8.0----30.21- 58.6 54.7----
2024-04-15 11:12 am W 6.0 11.1----30.21- 58.3 54.7----
2024-04-15 11:06 am W 7.0 9.9----30.22- 58.3 54.7----
2024-04-15 11:00 am W 2.9 6.0----30.22+0.04 58.6 54.7----
2024-04-15 10:54 am S 2.9 4.1----30.22- 58.3 54.7----
2024-04-15 10:48 am S 1.9 5.1----30.21- 58.5 54.7----
2024-04-15 10:42 am S 4.1 7.0----30.21- 57.4 54.7----
2024-04-15 10:36 am S 5.1 7.0----30.21- 57.2 54.7----
2024-04-15 10:30 am S 4.1 4.1----30.21- 57.0 54.7----
2024-04-15 10:24 amSSE 2.9 4.1----30.20- 57.0 54.5----
2024-04-15 10:18 am S 2.9 5.1----30.20- 56.7 54.5----
2024-04-15 10:12 amSSE 4.1 5.1----30.20- 56.3 54.5----
2024-04-15 10:06 amSSE 4.1 5.1----30.20- 56.1 54.5----
2024-04-15 10:00 am SE 4.1 5.1----30.21+0.06 56.3 54.5----
2024-04-15 09:54 amSSE 4.1 5.1----30.20- 56.5 54.5----
2024-04-15 09:48 amSSE 2.9 5.1----30.20- 56.5 54.5----
2024-04-15 09:42 amSSE 1.9 4.1----30.21- 56.7 54.5----
2024-04-15 09:36 amSSE 1.9 4.1----30.21- 56.5 54.5----
2024-04-15 09:30 amSSE 4.1 5.1----30.21- 56.3 54.5----
2024-04-15 09:24 amSSE 1.9 4.1----30.21- 56.3 54.7----
2024-04-15 09:18 am SE 1.9 4.1----30.20- 56.3 54.5----
2024-04-15 09:12 am S 2.9 4.1----30.20- 55.6 54.5----
2024-04-15 09:06 amSSE 4.1 5.1----30.20- 55.2 54.5----
2024-04-15 09:00 amSSE 4.1 4.1----30.20+0.06 55.0 54.5----
2024-04-15 08:54 am SE 4.1 4.1----30.20- 55.2 54.5----
2024-04-15 08:48 amESE 2.9 2.9----30.19- 55.9 54.5----
2024-04-15 08:42 amESE 1.9 2.9----30.19- 55.8 54.5----
2024-04-15 08:36 amESE 1.0 2.9----30.19- 55.8 54.5----
2024-04-15 08:30 am E 2.9 2.9----30.19- 54.7 54.5----
2024-04-15 08:24 am E 1.9 2.9----30.19- 55.4 54.5----
2024-04-15 08:18 am- 0.0 1.9----30.18- 55.4 54.5----
2024-04-15 08:12 am SE 1.9 2.9----30.18- 53.8 54.5----
2024-04-15 08:06 am E 4.1 5.1----30.18- 53.1 54.5----
2024-04-15 08:00 am E 2.9 4.1----30.18+0.06 53.8 54.5----
2024-04-15 07:54 amENE 2.9 4.1----30.18- 54.1 54.5----
2024-04-15 07:48 am N 4.1 5.1----30.17- 54.5 54.5----
2024-04-15 07:42 am NW 1.9 4.1----30.17- 55.4 54.5----
2024-04-15 07:36 am N 1.9 5.1----30.16- 54.3 54.5----
2024-04-15 07:30 am- 0.0 2.9----30.16-- 54.5----
2024-04-15 07:24 am- 0.0 1.9----30.16-- 54.5----
2024-04-15 07:18 am- 0.0 2.9----30.15- 52.9 54.3----
2024-04-15 07:12 am E 1.9 4.1----30.15- 51.6 54.5----
2024-04-15 07:06 am- 0.0 1.9----30.15- 51.3 54.3----
2024-04-15 07:00 am W 1.9 4.1----30.15+0.03 50.0 54.3----
2024-04-15 06:54 am W 2.9 6.0----30.14- 49.3 54.3----
2024-04-15 06:48 amENE 2.9 5.1----30.14- 49.6 54.3----
2024-04-15 06:42 am- 0.0 1.9----30.14- 49.1 54.3----
2024-04-15 06:36 am NW 1.9 1.9----30.14- 48.9 54.3----
2024-04-15 06:30 am N 1.0 4.1----30.14- 48.9 54.3----
2024-04-15 06:24 am- 0.0 1.9----30.13- 48.9 54.3----
2024-04-15 06:18 am W 1.0 2.9----30.13- 48.9 54.3----
2024-04-15 06:12 am W 1.0 1.0----30.14- 48.7 54.5----
2024-04-15 06:06 am N 1.9 4.1----30.14- 48.9 54.3----
2024-04-15 06:00 am W 2.9 2.9----30.13+0.01 48.9 54.3----
2024-04-15 05:54 am N 2.9 4.1----30.13- 48.2 54.3----
2024-04-15 05:48 am N 2.9 5.1----30.13- 48.7 54.3----
2024-04-15 05:42 am N 1.9 2.9----30.13- 48.9 54.5----
2024-04-15 05:36 am- 0.0 1.9----30.13- 48.9 54.5----
2024-04-15 05:30 am W 1.0 1.9----30.12- 49.1 54.5----
2024-04-15 05:24 am W 1.0 1.9----30.12- 48.9 54.5----
2024-04-15 05:18 am- 0.0 1.9----30.12- 49.1 54.5----
2024-04-15 05:12 am- 0.0 2.9----30.12- 48.7 54.5----
2024-04-15 05:06 amNNE 1.9 5.1----30.11- 49.3 54.5----
2024-04-15 05:00 amNNW 2.9 6.0----30.11-0.01 49.3 54.5----
2024-04-15 04:54 am NE 1.9 4.1----30.11- 49.6 54.5----
2024-04-15 04:48 am- 0.0 1.9----30.11- 49.8 54.5----
2024-04-15 04:42 amNNW 1.9 4.1----30.11- 50.0 54.5----
2024-04-15 04:36 amNNW 1.9 6.0----30.11- 50.0 54.5----
2024-04-15 04:30 amWNW 2.9 6.0----30.11- 50.0 54.5----
2024-04-15 04:24 am N 1.9 4.1----30.11- 49.6 54.5----
2024-04-15 04:18 am NW 4.1 5.1----30.11- 49.5 54.5----
2024-04-15 04:12 am N 2.9 5.1----30.11- 50.0 54.5----
2024-04-15 04:06 am N 4.1 6.0----30.11- 49.8 54.7----
2024-04-15 04:00 am N 5.1 5.1----30.12-0.01 50.2 54.7----
2024-04-15 03:54 amNNE 5.1 7.0----30.12- 50.5 54.7----
2024-04-15 03:48 amWSW 4.1 7.0----30.12- 51.8 54.7----
2024-04-15 03:42 am W 7.0 8.9----30.12- 52.0 54.7----
2024-04-15 03:36 am W 6.0 7.0----30.12- 51.6 54.7----
2024-04-15 03:30 am W 6.0 7.0----30.12- 51.3 54.7----
2024-04-15 03:24 am W 4.1 5.1----30.12- 51.3 54.7----
2024-04-15 03:18 am N 1.9 2.9----30.12- 49.8 54.7----
2024-04-15 03:12 amWSW 1.0 1.9----30.12- 50.2 54.7----
2024-04-15 03:06 am W 1.9 2.9----30.12- 50.0 54.7----
2024-04-15 03:00 am- 0.0 1.0----30.12-0.02 49.8 54.7----
2024-04-15 02:54 am- 0.0 1.9----30.11- 49.5 54.7----
2024-04-15 02:48 am- 0.0 1.0----30.11- 49.6 54.7----
2024-04-15 02:42 amNNW 1.9 4.1----30.11- 49.5 54.7----
2024-04-15 02:36 amWSW 1.0 1.9----30.11- 49.8 54.7----
2024-04-15 02:30 amWSW 1.9 1.9----30.11- 49.8 54.7----
2024-04-15 02:24 am W 1.0 2.9----30.11- 49.8 54.7----
2024-04-15 02:18 amNNW 1.9 4.1----30.11- 49.8 54.7----
2024-04-15 02:12 am N 4.1 5.1----30.12- 49.6 54.7----
2024-04-15 02:06 am N 1.9 4.1----30.12- 49.8 54.7----
2024-04-15 02:00 am- 0.0 2.9----30.12-0.01 50.0 54.7----
2024-04-15 01:54 am W 1.9 2.9----30.13- 50.0 54.7----
2024-04-15 01:48 am N 1.9 1.9----30.12- 49.8 54.7----
2024-04-15 01:42 amNNW 1.0 2.9----30.12- 50.0 54.7----
2024-04-15 01:36 amWNW 1.0 1.9----30.12- 50.2 54.7----
2024-04-15 01:30 amNNW 1.0 2.9----30.12- 50.2 54.7----
2024-04-15 01:24 am N 2.9 4.1----30.12- 50.0 54.7----
2024-04-15 01:18 am N 1.9 2.9----30.13- 50.2 54.7----
2024-04-15 01:12 am W 1.9 1.9----30.13- 50.5 54.7----
2024-04-15 01:06 am W 1.0 1.9----30.13- 50.5 54.7----
2024-04-15 01:00 am W 1.9 1.9----30.13+0.00 50.7 54.7----
2024-04-15 12:54 am W 1.0 1.9----30.13- 50.5 54.7----
2024-04-15 12:48 am W 1.0 1.9----30.13- 50.4 54.7----
2024-04-15 12:42 amWNW 1.0 1.9----30.13- 50.5 54.7----
2024-04-15 12:36 amNNW 1.0 1.9----30.13- 50.5 54.7----
2024-04-15 12:30 am N 2.9 2.9----30.13- 50.5 54.7----
2024-04-15 12:24 am N 2.9 5.1----30.13- 50.5 54.7----
2024-04-15 12:18 am N 2.9 4.1----30.13- 51.3 54.7----
2024-04-15 12:12 amNNW 2.9 6.0----30.13- 51.6 54.7----
2024-04-15 12:06 am W 5.1 5.1----30.14- 52.3 54.7----
2024-04-15 12:00 am NW 2.9 4.1----30.14+0.01 51.3 54.7----
2024-04-14 11:54 pmNNW 1.9 2.9----30.14- 51.1 54.7----
2024-04-14 11:48 pmWNW 1.9 2.9----30.14- 50.9 54.7----
2024-04-14 11:42 pmNNW 1.9 4.1----30.14- 50.9 54.7----
2024-04-14 11:36 pm W 1.0 1.9----30.14- 51.6 54.7----
2024-04-14 11:30 pm W 1.9 1.9----30.14- 51.3 54.7----
2024-04-14 11:24 pmWSW 1.0 1.9----30.14- 51.3 54.7----
2024-04-14 11:18 pm- 0.0 2.9----30.14- 50.9 54.7----
2024-04-14 11:12 pmNNW 2.9 4.1----30.14- 51.3 54.7----
2024-04-14 11:06 pm N 1.0 2.9----30.14- 51.4 54.7----
2024-04-14 11:00 pm N 2.9 4.1----30.14+0.02 51.3 54.7----
2024-04-14 10:54 pm N 4.1 6.0----30.14- 51.3 54.7----
2024-04-14 10:48 pmNNW 4.1 6.0----30.14- 51.8 54.7----
2024-04-14 10:42 pm W 6.0 8.0----30.14- 53.2 54.7----
2024-04-14 10:36 pm W 4.1 6.0----30.14- 52.9 54.7----
2024-04-14 10:30 pm W 1.9 2.9----30.14- 53.1 54.7----
2024-04-14 10:24 pmSSW 1.9 2.9----30.14- 52.9 54.7----
2024-04-14 10:18 pmSSW 1.9 2.9----30.14- 52.5 54.7----
2024-04-14 10:12 pmWSW 1.9 1.9----30.14- 52.5 54.7----
2024-04-14 10:06 pm W 1.9 2.9----30.14- 52.3 54.7----
2024-04-14 10:00 pm W 1.0 1.9----30.13+0.03 52.3 54.7----
2024-04-14 09:54 pm- 0.0 1.9----30.13- 52.3 54.7----
2024-04-14 09:48 pmNNW 1.9 1.9----30.13- 52.9 54.7----
2024-04-14 09:42 pm E 1.9 2.9----30.13- 53.4 54.7----
2024-04-14 09:36 pm NE 1.9 2.9----30.13- 53.4 54.7----
2024-04-14 09:30 pmNNE 1.9 4.1----30.13- 53.6 54.9----
2024-04-14 09:24 pm NW 2.9 6.0----30.13- 54.0 54.9----
2024-04-14 09:18 pmNNW 2.9 7.0----30.13- 54.1 54.9----
2024-04-14 09:12 pm NW 5.1 7.0----30.13- 54.3 54.9----
2024-04-14 09:06 pmWNW 6.0 8.9----30.13- 54.5 54.9----
2024-04-14 09:00 pmWNW 7.0 8.9----30.13+0.01 54.5 54.9----
2024-04-14 08:54 pmWNW 8.0 11.1----30.12- 54.5 54.9----
2024-04-14 08:48 pmWNW 8.9 11.1----30.12- 54.5 54.9----
2024-04-14 08:42 pm W 6.0 8.0----30.12- 54.0 54.9----
2024-04-14 08:36 pmWSW 6.0 8.0----30.12- 54.1 54.9----
2024-04-14 08:30 pm W 5.1 6.0----30.12- 54.3 54.9----
2024-04-14 08:24 pm W 5.1 7.0----30.12- 54.5 54.9----
2024-04-14 08:18 pm W 5.1 8.0----30.12- 54.3 55.0----
2024-04-14 08:12 pm W 4.1 6.0----30.12- 54.3 55.0----
2024-04-14 08:06 pmWNW 2.9 7.0----30.12- 54.3 55.0----
2024-04-14 08:00 pm NW 2.9 8.0----30.11+0.02 54.5 55.0----
2024-04-14 07:54 pm W 6.0 11.1----30.11- 54.7 55.0----
2024-04-14 07:48 pmWNW 8.0 12.0----30.11- 54.9 55.2----
2024-04-14 07:42 pm W 8.0 8.9----30.11- 54.9 55.2----
2024-04-14 07:36 pmWNW 4.1 8.0----30.11- 55.0 55.2----
2024-04-14 07:30 pm NW 5.1 8.9----30.11- 55.2 55.2----
2024-04-14 07:24 pm NW 6.0 8.0----30.10- 55.0 55.2----
2024-04-14 07:18 pm NW 6.0 12.0----30.10- 55.2 55.2----
2024-04-14 07:12 pmWNW 8.0 9.9----30.11- 55.2 55.2----
2024-04-14 07:06 pm W 7.0 8.9----30.10- 55.4 55.2----
2024-04-14 07:00 pm W 1.9 12.0----30.11+0.00 55.6 55.2----
2024-04-14 06:54 pm N 5.1 9.9----30.11- 55.8 55.2----
2024-04-14 06:48 pmENE 1.9 6.0----30.11- 56.1 55.2----
2024-04-14 06:42 pmWNW 4.1 9.9----30.11- 55.8 55.2----
2024-04-14 06:36 pmWNW 4.1 8.9----30.11- 55.9 55.2----
2024-04-14 06:30 pmWNW 6.0 13.0----30.11- 56.1 55.2----
2024-04-14 06:24 pm NW 8.0 15.0----30.11- 56.7 55.2----
2024-04-14 06:18 pmWNW 7.0 9.9----30.11- 56.7 55.2----
2024-04-14 06:12 pmWNW 5.1 21.0----30.11- 57.0 55.4----
2024-04-14 06:06 pmNNW 13.0 19.0----30.11- 57.0 55.2----
2024-04-14 06:00 pm NW 9.9 15.0----30.11+0.01 57.4 55.4----
2024-04-14 05:54 pm W 6.0 8.0----30.11- 57.7 55.4----
2024-04-14 05:48 pmWSW 6.0 14.0----30.11-- 55.4----
2024-04-14 05:42 pm W 14.0 18.1----30.11-- 55.4----
2024-04-14 05:36 pm W 15.0 20.0----30.11-- 55.4----
2024-04-14 05:30 pm-------30.11- 56.1 55.4----
2024-04-14 05:24 pm-------30.10- 56.5 55.4----
2024-04-14 05:18 pm W 15.0 19.0------- 55.4----
2024-04-14 05:12 pm W 14.0 18.1------ 56.1 55.4----
2024-04-14 05:06 pm W 15.0 19.0------ 56.1 55.4----
2024-04-14 05:00 pm W 15.0 19.0----30.10+0.00 56.1 55.4----
2024-04-14 04:54 pm W 15.9 21.0----30.10- 56.3 55.4----
2024-04-14 04:48 pm W 17.1 19.0----30.10- 56.3 55.4----
2024-04-14 04:42 pm W 15.0 17.1----30.10- 56.3 55.4----
2024-04-14 04:36 pmWNW 14.0 19.0----30.10- 56.7 55.4----
2024-04-14 04:30 pmWSW 7.0 15.0----30.10- 56.7 55.4----
2024-04-14 04:24 pm W 8.9 15.9----30.10- 56.1 55.4----
2024-04-14 04:18 pm W 12.0 20.0----30.10- 55.8 55.4----
2024-04-14 04:12 pmWSW 8.9 14.0----30.10- 55.6 55.4----
2024-04-14 04:06 pm W 8.9 15.0----30.10- 55.4 55.6----
2024-04-14 04:00 pmWSW 11.1 13.0----30.10+0.00- 55.4----
2024-04-14 03:54 pmWSW 5.1 9.9----30.10-- 55.4----
2024-04-14 03:48 pm S 8.9 13.0----30.09-- 55.4----
2024-04-14 03:42 pm S 6.0 11.1----30.09- 55.6 55.4----
2024-04-14 03:36 pm S 8.9 11.1----30.09- 55.8 55.4----
2024-04-14 03:30 pm S 7.0 9.9----30.09- 55.9 55.4----
2024-04-14 03:24 pmSSW 4.1 8.9----30.10- 56.3 55.4----
2024-04-14 03:18 pm SW 7.0 11.1----30.10- 56.1 55.4----
2024-04-14 03:12 pm SW 8.0 11.1----30.10- 56.3 55.4----
2024-04-14 03:06 pm SW 6.0 11.1----30.10- 56.3 55.4----
2024-04-14 03:00 pmSSW 6.0 8.0----30.10+0.00 56.1 55.4----
2024-04-14 02:54 pm S 5.1 8.9----30.11- 55.8 55.4----
2024-04-14 02:48 pm S 6.0 8.9----30.10-- 55.4----
2024-04-14 02:42 pm S 8.0 8.9----30.10-- 55.4----
2024-04-14 02:36 pm S 6.0 8.9----30.10-- 55.4----
2024-04-14 02:30 pm S 7.0 9.9----30.10-- 55.4----
2024-04-14 02:24 pm S 7.0 8.0----30.10-- 55.4----
2024-04-14 02:18 pm S 8.0 9.9----30.10- 54.5 55.4----
2024-04-14 02:12 pm S 7.0 9.9----30.10- 54.5 55.4----
2024-04-14 02:06 pm S 8.9 9.9----30.10- 54.7 55.4----
2024-04-14 02:00 pm S 7.0 8.0----30.10+0.00 54.7 55.4----
2024-04-14 01:54 pm S 7.0 8.9----30.10- 54.3 55.4----
2024-04-14 01:48 pmSSE 7.0 8.0----30.09- 54.3 55.4----
2024-04-14 01:42 pmSSE 5.1 7.0----30.09- 54.5 55.4----
2024-04-14 01:36 pmSSE 6.0 7.0----30.10- 54.7 55.4----
2024-04-14 01:30 pmSSE 6.0 7.0----30.10- 54.3 55.4----
2024-04-14 01:24 pmSSE 6.0 7.0----30.10- 54.5 55.4----
2024-04-14 01:18 pmSSE 7.0 7.0----30.10- 54.3 55.4----
2024-04-14 01:12 pmSSE 7.0 8.0----30.10- 54.1 55.4----
2024-04-14 01:06 pm SE 7.0 8.0----30.10- 54.1 55.4----
2024-04-14 01:00 pmSSE 5.1 8.0----30.10+0.02 54.5 55.4----
2024-04-14 12:54 pmSSE 6.0 7.0----30.10- 54.5 55.4----
2024-04-14 12:48 pmSSE 7.0 8.0----30.10- 54.3 55.4----
2024-04-14 12:42 pmSSE 7.0 7.0----30.10- 54.5 55.4----
2024-04-14 12:36 pmSSE 6.0 8.0----30.10- 54.5 55.4----
2024-04-14 12:30 pmSSE 6.0 7.0----30.10- 54.3 55.4----
2024-04-14 12:24 pm S 6.0 8.0----30.09- 54.3 55.4----
2024-04-14 12:18 pmSSE 6.0 8.0----30.09- 54.3 55.4----
2024-04-14 12:12 pmSSE 7.0 8.0----30.10- 54.1 55.4----
2024-04-14 12:06 pmSSE 7.0 8.0----30.10- 54.1 55.4----
2024-04-14 12:00 pmSSE 5.1 6.0----30.10+0.04------
2024-04-14 11:54 amSSE 5.1 6.0----30.10-------